Weather History for New Orleans NAS, LA

Change the Weather History Date:

Friday, September 7, 2012

  Actual Average Record
Temperature  
Mean Temperature 82 °F -  
Max Temperature 89 °F 86 °F 93 °F (2014)
Min Temperature 75 °F 71 °F 57 °F (2011)
Cooling Degree Days 17    
Growing Degree Days 32 (Base 50)    
Moisture  
Dew Point 73 °F    
Average Humidity 72    
Maximum Humidity 94    
Minimum Humidity 57    
Precipitation  
Precipitation 0.00 in - - ()
Sea Level Pressure  
Sea Level Pressure 29.88 in    
Wind  
Wind Speed 6 mph (East)    
Max Wind Speed 12 mph    
Max Gust Speed -    
Visibility 10 miles    
Events      
Averages and records for this station are not official NWS values.
T = Trace of Precipitation, MM = Missing Value Source: NWS Daily Summary

Daily Weather History Graph

Daily Weather History Graph

Search for Another Location

Airport:

Trip Planner

Search our weather history database for the weather conditions in past years. The results will help you decide how hot, cold, wet, or windy it might be!

Date:

Astronomy

Sep. 07, 2012 Rise Set
Actual Time 6:40 AM CDT 7:14 PM CDT
Civil Twilight 6:16 AM CDT 7:38 PM CDT
Nautical Twilight 5:48 AM CDT 8:06 PM CDT
Astronomical Twilight 5:19 AM CDT 8:35 PM CDT
Moon 11:42 PM CDT (9/7) 1:01 PM CDT (9/7)
Length of Visible Light 13h 22m
Length of Day
12h 33m
Waning Gibbous, 58% of the Moon is Illuminated
Sep 7
Waning Gibbous
Sep 8
Last Quarter
Sep 15
New
Sep 22
First Quarter
Sep 29
Full

Hourly Weather History & Observations

Time (CDT) Temp. Heat Index Dew Point Humidity Pressure Visibility Wind Dir Wind Speed Gust Speed Precip Events Conditions
4:55 AM 75.9 °F - 73.0 °F 91% 29.89 in 10.0 mi NE 3.5 mph - N/A   Clear
6:06 AM 75.2 °F - 73.4 °F 94% 29.89 in 10.0 mi NE 4.6 mph - 0.00 in   Partly Cloudy
6:55 AM 77.0 °F - 73.0 °F 88% 29.91 in 10.0 mi ENE 5.8 mph - 0.00 in   Scattered Clouds
7:55 AM 81.0 °F 86.7 °F 75.0 °F 82% 29.91 in 10.0 mi North 8.1 mph - N/A   Scattered Clouds
8:55 AM 82.9 °F 88.8 °F 73.0 °F 72% 29.93 in 10.0 mi East 5.8 mph - N/A   Partly Cloudy
9:55 AM 84.9 °F 90.7 °F 72.0 °F 65% 29.94 in 10.0 mi ESE 6.9 mph - N/A   Mostly Cloudy
10:55 AM 87.1 °F 94.5 °F 73.0 °F 63% 29.94 in 10.0 mi ESE 6.9 mph - N/A   Mostly Cloudy
11:55 AM 86.0 °F 93.0 °F 73.0 °F 65% 29.93 in 10.0 mi East 6.9 mph - N/A   Mostly Cloudy
12:55 PM 88.0 °F 95.6 °F 73.0 °F 61% 29.91 in 10.0 mi ESE 10.4 mph - N/A   Mostly Cloudy
1:55 PM 89.1 °F 97.0 °F 73.0 °F 59% 29.89 in 10.0 mi East 9.2 mph - N/A   Mostly Cloudy
2:55 PM 89.1 °F 96.0 °F 72.0 °F 57% 29.87 in 10.0 mi ESE 11.5 mph - N/A   Mostly Cloudy
3:55 PM 88.0 °F 94.7 °F 72.0 °F 59% 29.86 in 10.0 mi East 9.2 mph - N/A   Scattered Clouds
4:55 PM 88.0 °F 93.8 °F 71.1 °F 57% 29.85 in 10.0 mi East 9.2 mph - N/A   Partly Cloudy
5:55 PM 87.1 °F 93.6 °F 72.0 °F 61% 29.84 in 10.0 mi East 6.9 mph - N/A   Scattered Clouds
6:55 PM 84.9 °F 90.7 °F 72.0 °F 65% 29.84 in 10.0 mi East 8.1 mph - N/A   Scattered Clouds
7:55 PM 82.9 °F 88.8 °F 73.0 °F 72% 29.83 in 10.0 mi ESE 5.8 mph - N/A   Scattered Clouds
8:55 PM 82.0 °F 87.9 °F 73.9 °F 76% 29.84 in 10.0 mi ESE 5.8 mph - N/A   Partly Cloudy
9:55 PM 79.0 °F - 73.0 °F 82% 29.86 in 10.0 mi Calm Calm - N/A   Clear
10:55 PM 77.0 °F - 73.9 °F 90% 29.85 in 10.0 mi Calm Calm - N/A   Clear